Index of /20260503/WXO-DD/model_gdps/15km/12/049
Name Last modified Size Description
Parent Directory -
20260503T12Z_MSC_GDPS_AirTemp_AGL-120m_LatLon0.15_PT049H.grib2 2026-05-03 15:53 900K
20260503T12Z_MSC_GDPS_AirTemp_AGL-2m_LatLon0.15_PT049H.grib2 2026-05-03 15:53 1.0M
20260503T12Z_MSC_GDPS_AirTemp_AGL-40m_LatLon0.15_PT049H.grib2 2026-05-03 15:53 802K
20260503T12Z_MSC_GDPS_AirTemp_AGL-80m_LatLon0.15_PT049H.grib2 2026-05-03 15:53 791K
20260503T12Z_MSC_GDPS_Albedo_Sfc_LatLon0.15_PT049H.grib2 2026-05-03 15:53 241K
20260503T12Z_MSC_GDPS_ConvectivePrecip-Accum_Sfc_LatLon0.15_PT049H.grib2 2026-05-03 15:53 3.0M
20260503T12Z_MSC_GDPS_DewPointDepression_AGL-2m_LatLon0.15_PT049H.grib2 2026-05-03 15:53 762K
20260503T12Z_MSC_GDPS_DewPoint_AGL-2m_LatLon0.15_PT049H.grib2 2026-05-03 15:53 607K
20260503T12Z_MSC_GDPS_DownwardLongwaveRadiationFlux-Accum_Sfc_LatLon0.15_PT049H.grib2 2026-05-03 15:53 822K
20260503T12Z_MSC_GDPS_DownwardShortwaveRadiationFlux-Accum_Sfc_LatLon0.15_PT049H.grib2 2026-05-03 15:53 1.0M
20260503T12Z_MSC_GDPS_FreezingRain-Accum1h_Sfc_LatLon0.15_PT049H.grib2 2026-05-03 15:53 53K
20260503T12Z_MSC_GDPS_FreezingRain-Accum_Sfc_LatLon0.15_PT049H.grib2 2026-05-03 15:53 202K
20260503T12Z_MSC_GDPS_IcePellets-Accum1h_Sfc_LatLon0.15_PT049H.grib2 2026-05-03 15:53 18K
20260503T12Z_MSC_GDPS_IcePellets-Accum_Sfc_LatLon0.15_PT049H.grib2 2026-05-03 15:53 77K
20260503T12Z_MSC_GDPS_LatentHeatNetFlux_Sfc_LatLon0.15_PT049H.grib2 2026-05-03 15:53 560K
20260503T12Z_MSC_GDPS_NetLongwaveRadiationFlux-Accum_Sfc_LatLon0.15_PT049H.grib2 2026-05-03 15:53 1.1M
20260503T12Z_MSC_GDPS_NetShortwaveRadiationFlux-Accum_Sfc_LatLon0.15_PT049H.grib2 2026-05-03 15:53 1.0M
20260503T12Z_MSC_GDPS_O3MixingRatio_Sfc_LatLon0.15_PT049H.grib2 2026-05-03 16:46 2.3M
20260503T12Z_MSC_GDPS_O3_EAtm_LatLon0.15_PT049H.grib2 2026-05-03 16:46 2.5M
20260503T12Z_MSC_GDPS_PlanetaryBoundaryLayerHeight_Sfc_LatLon0.15_PT049H.grib2 2026-05-03 15:53 2.5M
20260503T12Z_MSC_GDPS_Precip-Accum1h_Sfc_LatLon0.15_PT049H.grib2 2026-05-03 15:53 3.2M
20260503T12Z_MSC_GDPS_Precip-Accum_Sfc_LatLon0.15_PT049H.grib2 2026-05-03 15:53 4.8M
20260503T12Z_MSC_GDPS_PrecipRate_Sfc_LatLon0.15_PT049H.grib2 2026-05-03 15:53 3.0M
20260503T12Z_MSC_GDPS_Pressure_MSL_LatLon0.15_PT049H.grib2 2026-05-03 15:53 723K
20260503T12Z_MSC_GDPS_Pressure_Sfc_LatLon0.15_PT049H.grib2 2026-05-03 15:53 1.1M
20260503T12Z_MSC_GDPS_RadiativeTemp_Sfc_LatLon0.15_PT049H.grib2 2026-05-03 15:53 491K
20260503T12Z_MSC_GDPS_Rain-Accum1h_Sfc_LatLon0.15_PT049H.grib2 2026-05-03 15:53 1.5M
20260503T12Z_MSC_GDPS_Rain-Accum_Sfc_LatLon0.15_PT049H.grib2 2026-05-03 15:53 3.7M
20260503T12Z_MSC_GDPS_RelativeHumidity_AGL-2m_LatLon0.15_PT049H.grib2 2026-05-03 15:53 1.1M
20260503T12Z_MSC_GDPS_Runoff-Accum_Sfc_LatLon0.15_PT049H.grib2 2026-05-03 15:53 123K
20260503T12Z_MSC_GDPS_SensibleHeatNetFlux_Sfc_LatLon0.15_PT049H.grib2 2026-05-03 15:53 662K
20260503T12Z_MSC_GDPS_Snow-Accum1h_Sfc_LatLon0.15_PT049H.grib2 2026-05-03 15:53 1.1M
20260503T12Z_MSC_GDPS_Snow-Accum_Sfc_LatLon0.15_PT049H.grib2 2026-05-03 15:53 1.8M
20260503T12Z_MSC_GDPS_SnowDepth_Sfc_LatLon0.15_PT049H.grib2 2026-05-03 15:53 1.7M
20260503T12Z_MSC_GDPS_SoilTemp_DBS-0to10cm_LatLon0.15_PT049H.grib2 2026-05-03 15:53 505K
20260503T12Z_MSC_GDPS_SoilTemp_Sfc_LatLon0.15_PT049H.grib2 2026-05-03 15:53 571K
20260503T12Z_MSC_GDPS_SoilVolumetricWaterContent_DBS-0to10cm_LatLon0.15_PT049H.grib2 2026-05-03 15:53 591K
20260503T12Z_MSC_GDPS_SoilVolumetricWaterContent_DBS-0to1cm_LatLon0.15_PT049H.grib2 2026-05-03 15:53 648K
20260503T12Z_MSC_GDPS_SpecificHumidity_AGL-120m_LatLon0.15_PT049H.grib2 2026-05-03 15:53 1.1M
20260503T12Z_MSC_GDPS_SpecificHumidity_AGL-2m_LatLon0.15_PT049H.grib2 2026-05-03 15:53 1.2M
20260503T12Z_MSC_GDPS_SpecificHumidity_AGL-40m_LatLon0.15_PT049H.grib2 2026-05-03 15:53 1.1M
20260503T12Z_MSC_GDPS_SpecificHumidity_AGL-80m_LatLon0.15_PT049H.grib2 2026-05-03 15:53 1.1M
20260503T12Z_MSC_GDPS_SpecificHumidity_Sfc_LatLon0.15_PT049H.grib2 2026-05-03 15:53 591K
20260503T12Z_MSC_GDPS_TotalCloudCover_Sfc_LatLon0.15_PT049H.grib2 2026-05-03 15:53 824K
20260503T12Z_MSC_GDPS_UVIndex-ClearSky_Sfc_LatLon0.15_PT049H.grib2 2026-05-03 16:46 1.0M
20260503T12Z_MSC_GDPS_UVIndex_Sfc_LatLon0.15_PT049H.grib2 2026-05-03 16:46 1.5M
20260503T12Z_MSC_GDPS_UpwardLongwaveRadiationFlux_NTAtm_LatLon0.15_PT049H.grib2 2026-05-03 15:53 838K
20260503T12Z_MSC_GDPS_WindDir_AGL-10m_LatLon0.15_PT049H.grib2 2026-05-03 15:53 1.3M
20260503T12Z_MSC_GDPS_WindDir_AGL-120m_LatLon0.15_PT049H.grib2 2026-05-03 15:53 1.3M
20260503T12Z_MSC_GDPS_WindDir_AGL-40m_LatLon0.15_PT049H.grib2 2026-05-03 15:53 1.4M
20260503T12Z_MSC_GDPS_WindDir_AGL-80m_LatLon0.15_PT049H.grib2 2026-05-03 15:53 1.3M
20260503T12Z_MSC_GDPS_WindDir_IsbL-0700_LatLon0.15_PT049H.grib2 2026-05-03 15:53 1.6M
20260503T12Z_MSC_GDPS_WindGust-Max_AGL-10m_LatLon0.15_PT049H.grib2 2026-05-03 15:53 2.2M
20260503T12Z_MSC_GDPS_WindGust-Min_AGL-10m_LatLon0.15_PT049H.grib2 2026-05-03 15:53 2.1M
20260503T12Z_MSC_GDPS_WindGust_AGL-10m_LatLon0.15_PT049H.grib2 2026-05-03 15:53 2.1M
20260503T12Z_MSC_GDPS_WindSpeed_AGL-10m_LatLon0.15_PT049H.grib2 2026-05-03 15:53 1.1M
20260503T12Z_MSC_GDPS_WindSpeed_AGL-120m_LatLon0.15_PT049H.grib2 2026-05-03 15:53 1.2M
20260503T12Z_MSC_GDPS_WindSpeed_AGL-40m_LatLon0.15_PT049H.grib2 2026-05-03 15:53 1.2M
20260503T12Z_MSC_GDPS_WindSpeed_AGL-80m_LatLon0.15_PT049H.grib2 2026-05-03 15:53 1.2M
20260503T12Z_MSC_GDPS_WindSpeed_IsbL-0700_LatLon0.15_PT049H.grib2 2026-05-03 15:53 1.5M
20260503T12Z_MSC_GDPS_WindU_AGL-10m_LatLon0.15_PT049H.grib2 2026-05-03 15:53 1.3M
20260503T12Z_MSC_GDPS_WindU_AGL-120m_LatLon0.15_PT049H.grib2 2026-05-03 15:53 1.0M
20260503T12Z_MSC_GDPS_WindU_AGL-40m_LatLon0.15_PT049H.grib2 2026-05-03 15:53 964K
20260503T12Z_MSC_GDPS_WindU_AGL-80m_LatLon0.15_PT049H.grib2 2026-05-03 15:53 1.0M
20260503T12Z_MSC_GDPS_WindU_IsbL-0700_LatLon0.15_PT049H.grib2 2026-05-03 15:53 1.2M
20260503T12Z_MSC_GDPS_WindV_AGL-10m_LatLon0.15_PT049H.grib2 2026-05-03 15:53 1.6M
20260503T12Z_MSC_GDPS_WindV_AGL-120m_LatLon0.15_PT049H.grib2 2026-05-03 15:53 968K
20260503T12Z_MSC_GDPS_WindV_AGL-40m_LatLon0.15_PT049H.grib2 2026-05-03 15:53 963K
20260503T12Z_MSC_GDPS_WindV_AGL-80m_LatLon0.15_PT049H.grib2 2026-05-03 15:53 968K
20260503T12Z_MSC_GDPS_WindV_IsbL-0700_LatLon0.15_PT049H.grib2 2026-05-03 15:53 1.2M